Syracuse, NY

6:21 PM EST on November 15, 2019 (GMT -0500)
Syracuse Hancock International

Weather History for KSYR - October, 2019

Change the Weather History Date:

Sunday, October 20, 2019

  Actual Average Record
Temperature  
Mean Temperature 50 °F 49 °F  
Max Temperature 62 °F 58 °F 81 °F (1963)
Min Temperature 37 °F 40 °F 20 °F (1940)
Degree Days  
Heating Degree Days 16 16  
Month to date heating degree days 250 257  
Since 1 July heating degree days 325 424  
Cooling Degree Days 0 0  
Month to date cooling degree days 11 0  
Year to date cooling degree days 622 565  
Moisture  
Dew Point 44 °F    
Average Humidity 87    
Maximum Humidity 100    
Minimum Humidity 60    
Precipitation  
Precipitation T in 0.11 in 1.87 in (2016)
Month to date precipitation 3.37 2.23  
Year to date precipitation 37.50 30.51  
Snow  
Snow 0.00 in 0.00 in 2.00 in (1952)
Month to date snowfall 0.0 0.1  
Since 1 July snowfall T 0.1  
Since 1 September snowfall T 0.1  
Snow Depth 0.00 in    
Sea Level Pressure  
Sea Level Pressure 29.96 in    
Wind  
Wind Speed 5 mph ()    
Max Wind Speed 16 mph    
Max Gust Speed 19 mph    
Visibility 9.9 miles    
Events Fog , Rain    
T = Trace of Precipitation, MM = Missing Value Source: Averaged Metar Reports

Daily Weather History Graph

Daily Weather History Graph

Search for Another Location

Airport or City:

Astronomy

Oct. 20, 2019 Rise Set
Actual Time 7:23 AM EDT 6:13 PM EDT
Civil Twilight 6:54 AM EDT 6:42 PM EDT
Nautical Twilight 6:21 AM EDT 7:15 PM EDT
Astronomical Twilight 5:48 AM EDT 7:48 PM EDT
Moon 11:14 PM EDT (10/20) 1:56 PM EDT (10/20)
Length of Visible Light 11h 47m
Length of Day
10h 50m
Waning Gibbous, 59% of the Moon is Illuminated
Oct 20
Waning Gibbous
Oct 21
Last Quarter
Oct 27
New
Nov 4
First Quarter
Nov 12
Full

Hourly Weather History & Observations

Time (EDT) Temp. Windchill Dew Point Humidity Pressure Visibility Wind Dir Wind Speed Gust Speed Precip Events Conditions
12:54 AM 39.0 °F 36.8 °F 37.9 °F 96% 29.98 in 10.0 mi East 3.5 mph - N/A   Scattered Clouds
1:54 AM 37.9 °F 33.5 °F 37.0 °F 97% 29.98 in 10.0 mi East 5.8 mph - N/A   Scattered Clouds
2:54 AM 37.0 °F 31.6 °F 37.0 °F 100% 29.98 in 10.0 mi East 6.9 mph - N/A   Scattered Clouds
3:54 AM 39.9 °F 35.1 °F 37.9 °F 93% 29.96 in 10.0 mi East 6.9 mph - N/A   Mostly Cloudy
4:54 AM 39.9 °F 34.5 °F 39.0 °F 97% 29.94 in 10.0 mi East 8.1 mph - N/A   Overcast
5:54 AM 41.0 °F 37.1 °F 39.0 °F 93% 29.93 in 10.0 mi East 5.8 mph - N/A   Overcast
6:54 AM 43.0 °F 39.5 °F 39.0 °F 86% 29.92 in 10.0 mi ENE 5.8 mph - N/A   Mostly Cloudy
7:54 AM 43.0 °F 41.3 °F 39.9 °F 89% 29.94 in 10.0 mi ESE 3.5 mph - N/A   Mostly Cloudy
8:54 AM 45.0 °F 42.6 °F 42.1 °F 90% 29.94 in 10.0 mi East 4.6 mph - N/A   Mostly Cloudy
9:54 AM 48.0 °F - 44.1 °F 86% 29.96 in 10.0 mi East 4.6 mph - N/A   Mostly Cloudy
10:54 AM 48.9 °F - 45.0 °F 86% 29.96 in 10.0 mi East 5.8 mph - N/A   Mostly Cloudy
11:54 AM 52.0 °F - 46.9 °F 83% 29.96 in 10.0 mi East 5.8 mph - 0.00 in Rain Light Rain
12:54 PM 55.0 °F - 48.0 °F 77% 29.96 in 10.0 mi SE 9.2 mph - 0.00 in   Mostly Cloudy
1:54 PM 57.9 °F - 48.9 °F 72% 29.94 in 10.0 mi SE 8.1 mph - N/A   Mostly Cloudy
2:54 PM 61.0 °F - 48.9 °F 64% 29.94 in 10.0 mi SSW 15.0 mph - N/A   Scattered Clouds
3:54 PM 62.1 °F - 48.9 °F 62% 29.94 in 10.0 mi South 9.2 mph - N/A   Scattered Clouds
4:54 PM 60.1 °F - 50.0 °F 69% 29.95 in 10.0 mi South 5.8 mph - N/A   Scattered Clouds
5:54 PM 59.0 °F - 50.0 °F 72% 29.96 in 10.0 mi SSE 5.8 mph - N/A   Mostly Cloudy
6:54 PM 53.1 °F - 48.9 °F 86% 29.97 in 10.0 mi ESE 5.8 mph - N/A   Scattered Clouds
7:54 PM 51.1 °F - 48.0 °F 89% 29.98 in 10.0 mi East 5.8 mph - N/A   Partly Cloudy
8:54 PM 48.9 °F - 48.0 °F 97% 29.99 in 10.0 mi East 5.8 mph - N/A   Partly Cloudy
9:54 PM 48.9 °F - 46.9 °F 93% 29.99 in 10.0 mi East 4.6 mph - N/A   Partly Cloudy
10:54 PM 46.0 °F 43.9 °F 46.0 °F 100% 30.00 in 10.0 mi ENE 4.6 mph - N/A   Partly Cloudy
11:54 PM 45.0 °F 43.5 °F 45.0 °F 100% 30.02 in 8.0 mi ENE 3.5 mph - N/A Fog Patches of Fog